Location: Huntsville
(41.2590°N, 111.7678°W)
Time: 19:04:21
(UTC+00:00)

Explorer 7 - Pass Details

Date: 21 June 2021
Orbit: 484 x 676 km, 50.3° (Epoch: 30 July)

Event Time Altitude Azimuth Distance (km) Brightness Sun altitude
Rises 04:38:03 0° 252° (WSW) 3,017 10.9 -14.1°
Reaches altitude 10° 04:40:27 10° 257° (WSW) 2,107 10.1 -14.4°
Maximum altitude 04:45:15 53° 334° (NNW) 823 8.1 -15.0°
Drops below altitude 10° 04:49:58 10° 52° (NE) 2,074 9.8 -15.6°
Sets 04:52:20 0° 57° (ENE) 2,965 10.5 -15.8°
